Flag for Jordan Weather past 2 weeks in Amman, Jordan

Now
72 °F

Scattered clouds.


Feels Like: 77 °F
Forecast: 54 / 73 °F
Wind: 12 mph from Northwest

Location: Amman Airport

Current Time: Oct 23, 2014 at 2:25:38 PM

Latest Report: Oct 23, 2014 at 2:00 PM


Visibility: 4 mi

Pressure: 30.09 "Hg

Humidity: 36%

Dew point: 43 °F

Location of AmmanLocation

Historic Weather in Amman — Graph

°F

Amman temperature yesterday

Maximum temperature yesterday: 79 °F (at 3:00 PM)
Minimum temperature yesterday: 52 °F (at 6:00 AM)
Average temperature yesterday: 67 °F

Past Weeks' High & Low Weather Summary

 TemperatureHumidityPressure
High91 °F (Oct 8, 3:00 PM)94% (Oct 19, 9:00 PM)30.21 "Hg (Oct 19, 9:00 PM)
Low52 °F (Oct 22, 6:00 AM)13% (Oct 8, 1:00 PM)29.83 "Hg (Oct 19, 2:00 PM)
Average68 °F55%30.03 "Hg
* Reported Oct 8 1:00 PM — Oct 23 1:00 PM, Amman, Weather by CustomWeather, © 2014

Note: Actual official high and low records may vary slightly from our data, if they occured in-between our weather recording intervals... More about our weather records

Advertising

Amman weather history for previous 24 hours

 ConditionsComfort  
Time TempWeatherWind HumidityBarometerVisibility
1:00 PM
Oct 23
72 °FScattered clouds.12 mph38%30.09 "Hg4 mi
12:00 PM72 °FHaze.12 mph38%30.09 "Hg3 mi
10:00 AM66 °FHaze.12 mph52%30.09 "Hg3 mi
9:00 AM64 °FHaze.5 mph49%30.07 "Hg3 mi
8:00 AM61 °FHaze.No wind48%30.07 "Hg3 mi
7:00 AM57 °FHaze.No wind44%30.04 "Hg3 mi
6:00 AM59 °FHaze.No wind45%30.04 "Hg3 mi
5:00 AM61 °FHaze.No wind39%30.04 "Hg3 mi
4:00 AM61 °FHaze.No wind36%30.04 "Hg3 mi
3:00 AM64 °FHaze.No wind32%30.04 "Hg3 mi
2:00 AM66 °FHaze.No wind30%30.04 "Hg3 mi
1:00 AM66 °FHaze.No wind30%30.04 "Hg3 mi
12:00 AM68 °FHaze.7 mph30%30.07 "Hg3 mi
11:00 PM
Oct 22
70 °FHaze.8 mph29%30.07 "Hg3 mi
10:00 PM70 °FHaze.12 mph29%30.04 "Hg3 mi
9:00 PM70 °FHaze.7 mph29%30.04 "Hg3 mi
8:00 PM70 °FHaze.12 mph29%30.04 "Hg3 mi
7:00 PM72 °FHaze.10 mph29%30.04 "Hg3 mi
6:00 PM75 °FHaze.No wind29%30.04 "Hg3 mi
5:00 PM77 °FClear.7 mph24%30.04 "Hg4 mi
4:00 PM79 °FHaze.8 mph23%30.04 "Hg3 mi
3:00 PM79 °FHaze.8 mph21%30.04 "Hg3 mi
2:00 PM77 °FHaze.13 mph24%30.07 "Hg3 mi
Weather by CustomWeather, © 2014

See weather overviewHow to use our weather pages